Weather in Megara

Greece     37°59′44″N   23°20′35″E
temp.,
°C
wind,
m/s
gust,
m/s
humid.,
%
clouds,
%
prec.,
mm/h
press.,
hPa
HPBL,
m
2 march, tue
tue223:00+9ne22742 0.0 1028125
02:00+8n24741 0.0 1029350
05:00+7n338313 0.1 1029363
08:00+7n497526 0.3 1031986
11:00+10nne811530 0.0 10321561
14:00+11nne911510 0.0 10311692
17:00+9n7106038 0.1 10301381
20:00+6nnw347422 0.1 1031311
3 march, wed
wed323:00+6nnw33790 0.0 1031226
02:00+5nnw34810 0.0 1030147
05:00+5nnw34790 0.0 1030155
08:00+7nnw36730 0.0 1030324
11:00+12nnw48490 0.0 10301187
14:00+14n48410 0.0 10301327
17:00+14nnw38420 0.0 10291122
20:00+9nnw34580 0.0 1029176
4 march, thu
thu423:00+8nnw23540 0.0 102982
02:00+8nnw22480 0.0 102765
05:00+8nnw22470 0.0 102671
08:00+9nnw22470 0.0 102681
11:00+14wnw12340 0.0 1025590
14:00+15sw22370 0.0 1023530
17:00+15sw12350 0.0 1021279
20:00+10ne11510 0.0 102259
5 march, fri
fri523:00+10nnw225234 0.0 102164
02:00+10nw347230 0.0 1019114
05:00+9nw45700 0.0 1019128
08:00+11nw45631 0.0 1019241
11:00+15wnw344341 0.0 1018474
14:00+16w234337 0.0 1017460
17:00+15ssw2347100 0.0 1017444
20:00+13wnw5858100 0.0 1018431
6 march, sat
sat623:00+12wnw5864100 0.0 1018359
02:00+11wnw466482 0.0 1018220
05:00+11wnw466562 0.1 1018236
08:00+11wnw466755 0.1 1019339
11:00+15wnw455625 0.0 1020608
14:00+17wnw455013 0.0 1019606
17:00+17w34520 0.0 1019527
20:00+12nw33730 0.0 102069